AUA97B BIKF-LOWW

Flight info

Callsign AUA97B
Flight time 3h 28m
Altitude 37000
Route OSKUM3C OSKUM DCT RATSU/N0450F370 DCT DEVBI DCT BAMRA DCT FORTY DCT LAMRO DCT ARTEX DCT VAXIT DCT TUSKA DCT NEBUN DCT BOLBO DCT HDO DCT EVIKU DCT BITSI DCT MIKOV MIKOV8W
Aircraft A20N/M-SDE2E3FGHIRWXY/LB1

Departure

Time 2026-04-25 12:26
Airport Keflavik International Airport (BIKF)

Arrival

Time 2026-04-25 15:54
Airport Vienna International Airport (LOWW)
Time Latitude Longitude Altitude Speed Heading
2026-04-25 11:10 63.99279 -22.62461 139 ft 0 kts
2026-04-25 12:16 63.99266 -22.62461 139 ft 2 kts
2026-04-25 12:16 63.99250 -22.62462 139 ft 2 kts
2026-04-25 12:16 63.99235 -22.62462 139 ft 2 kts
2026-04-25 12:16 63.99219 -22.62463 138 ft 2 kts
2026-04-25 12:17 63.99204 -22.62464 138 ft 2 kts
2026-04-25 12:17 63.99186 -22.62465 137 ft 2 kts 22°
2026-04-25 12:17 63.99173 -22.62493 137 ft 2 kts 71°
2026-04-25 12:17 63.99171 -22.62512 136 ft 1 kts 95°
2026-04-25 12:18 63.99172 -22.62525 136 ft 0 kts 91°
2026-04-25 12:21 63.99172 -22.62492 137 ft 4 kts 90°
2026-04-25 12:21 63.99172 -22.62389 139 ft 8 kts 90°
2026-04-25 12:21 63.99172 -22.62219 140 ft 13 kts 91°
2026-04-25 12:22 63.99172 -22.61968 140 ft 16 kts 90°
2026-04-25 12:22 63.99171 -22.61704 140 ft 16 kts 92°
2026-04-25 12:22 63.99171 -22.61451 140 ft 14 kts 89°
2026-04-25 12:22 63.99172 -22.61228 142 ft 12 kts 91°
2026-04-25 12:23 63.99172 -22.61029 143 ft 12 kts 91°
2026-04-25 12:23 63.99173 -22.60837 143 ft 4 kts 90°
2026-04-25 12:23 63.99173 -22.60832 143 ft 0 kts 90°
2026-04-25 12:23 63.99173 -22.60817 143 ft 1 kts 90°
2026-04-25 12:24 63.99173 -22.60792 143 ft 1 kts 90°
2026-04-25 12:24 63.99173 -22.60788 143 ft 0 kts 90°
2026-04-25 12:25 63.99173 -22.60749 143 ft 6 kts 90°
2026-04-25 12:25 63.99173 -22.60611 143 ft 8 kts 93°
2026-04-25 12:25 63.99136 -22.60550 144 ft 0 kts 181°
2026-04-25 12:25 63.99110 -22.60551 144 ft 21 kts 181°
2026-04-25 12:26 63.98650 -22.60545 152 ft 96 kts 180°
2026-04-25 12:26 63.97667 -22.60545 165 ft 154 kts 176°
2026-04-25 12:26 63.96408 -22.60517 801 ft 158 kts 175°
2026-04-25 12:26 63.95199 -22.60313 1544 ft 156 kts 156°
2026-04-25 12:27 63.94413 -22.58350 2185 ft 160 kts 114°
2026-04-25 12:27 63.94064 -22.55592 2636 ft 177 kts 105°
2026-04-25 12:27 63.93784 -22.52680 3028 ft 194 kts 104°
2026-04-25 12:27 63.93475 -22.49442 3363 ft 216 kts 104°
2026-04-25 12:28 63.93128 -22.45868 3824 ft 235 kts 103°
2026-04-25 12:28 63.92750 -22.42034 4529 ft 243 kts 103°
2026-04-25 12:28 63.92355 -22.38081 5391 ft 246 kts 102°
2026-04-25 12:28 63.91952 -22.34084 6203 ft 250 kts 102°
2026-04-25 12:29 63.91542 -22.30041 6994 ft 254 kts 101°
2026-04-25 12:29 63.91125 -22.25943 7761 ft 259 kts 101°
2026-04-25 12:29 63.90680 -22.21586 8540 ft 265 kts 101°
2026-04-25 12:29 63.90233 -22.17226 9296 ft 270 kts 100°
2026-04-25 12:30 63.89780 -22.12829 10028 ft 275 kts 100°
2026-04-25 12:30 63.89297 -22.08145 10708 ft 283 kts 100°
2026-04-25 12:30 63.88784 -22.03172 11097 ft 301 kts 100°
2026-04-25 12:30 63.88288 -21.98386 11412 ft 318 kts 100°
2026-04-25 12:31 63.87808 -21.93776 11686 ft 333 kts 100°
2026-04-25 12:31 63.87211 -21.88079 11996 ft 351 kts 101°
2026-04-25 12:31 63.86634 -21.82614 12376 ft 362 kts 101°
2026-04-25 12:31 63.85979 -21.76441 13081 ft 366 kts 101°
2026-04-25 12:32 63.85297 -21.70058 13814 ft 369 kts 101°
2026-04-25 12:32 63.84622 -21.63765 14479 ft 374 kts 101°
2026-04-25 12:32 63.83930 -21.57343 15143 ft 377 kts 101°
2026-04-25 12:32 63.83223 -21.50801 15794 ft 381 kts 101°
2026-04-25 12:33 63.82502 -21.44173 16431 ft 385 kts 101°
2026-04-25 12:33 63.81762 -21.37386 17058 ft 389 kts 101°
2026-04-25 12:33 63.81042 -21.30824 17638 ft 392 kts 102°
2026-04-25 12:33 63.80312 -21.24203 18197 ft 396 kts 102°
2026-04-25 12:34 63.79572 -21.17521 18755 ft 400 kts 102°
2026-04-25 12:34 63.78827 -21.10823 19293 ft 403 kts 102°
2026-04-25 12:34 63.78083 -21.04147 19768 ft 408 kts 102°
2026-04-25 12:34 63.77605 -20.99867 20031 ft 411 kts 103°
2026-04-25 12:35 63.76607 -20.90988 20614 ft 418 kts 103°
2026-04-25 12:35 63.75861 -20.84413 21097 ft 421 kts 104°
2026-04-25 12:35 63.75089 -20.77666 21593 ft 423 kts 104°
2026-04-25 12:35 63.74313 -20.70916 22057 ft 426 kts 104°
2026-04-25 12:36 63.73613 -20.64852 22463 ft 429 kts 104°
2026-04-25 12:36 63.72834 -20.58116 22906 ft 432 kts 103°
2026-04-25 12:36 63.71988 -20.50995 23364 ft 435 kts 105°
2026-04-25 12:36 63.71007 -20.44146 23798 ft 438 kts 109°
2026-04-25 12:37 63.69846 -20.37509 24212 ft 441 kts 112°
2026-04-25 12:37 63.68568 -20.31158 24604 ft 444 kts 115°
2026-04-25 12:37 63.67241 -20.24686 24992 ft 447 kts 115°
2026-04-25 12:37 63.65868 -20.18011 25379 ft 449 kts 115°
2026-04-25 12:38 63.64507 -20.11404 25753 ft 452 kts 114°
2026-04-25 12:38 63.63171 -20.04933 26103 ft 454 kts 114°
2026-04-25 12:38 63.61795 -19.98278 26448 ft 457 kts 114°
2026-04-25 12:38 63.60444 -19.91756 26777 ft 459 kts 114°
2026-04-25 12:39 63.59089 -19.85237 27089 ft 461 kts 114°
2026-04-25 12:39 63.57720 -19.78671 27389 ft 463 kts 114°
2026-04-25 12:39 63.56336 -19.72051 27676 ft 465 kts 114°
2026-04-25 12:39 63.54950 -19.65444 27946 ft 467 kts 114°
2026-04-25 12:40 63.53566 -19.58864 28242 ft 468 kts 114°
2026-04-25 12:40 63.52185 -19.52320 28609 ft 467 kts 114°
2026-04-25 12:40 63.50794 -19.45751 28971 ft 466 kts 114°
2026-04-25 12:40 63.49403 -19.39200 29302 ft 465 kts 114°
2026-04-25 12:41 63.48015 -19.32682 29613 ft 465 kts 115°
2026-04-25 12:41 63.46625 -19.26181 29911 ft 464 kts 115°
2026-04-25 12:41 63.45237 -19.19703 30202 ft 464 kts 115°
2026-04-25 12:41 63.43844 -19.13218 30491 ft 463 kts 115°
2026-04-25 12:42 63.42451 -19.06757 30783 ft 462 kts 115°
2026-04-25 12:42 63.41519 -19.02443 30978 ft 461 kts 115°
2026-04-25 12:42 63.39658 -18.93859 31357 ft 460 kts 115°
2026-04-25 12:42 63.38269 -18.87477 31623 ft 459 kts 115°
2026-04-25 12:43 63.36870 -18.81070 31870 ft 458 kts 115°
2026-04-25 12:43 63.35484 -18.74742 32105 ft 458 kts 115°
2026-04-25 12:43 63.32702 -18.62094 32563 ft 457 kts 115°
2026-04-25 12:44 63.31300 -18.55751 32789 ft 457 kts 115°
2026-04-25 12:44 63.29897 -18.49418 33009 ft 457 kts 115°
2026-04-25 12:44 63.27086 -18.36787 33435 ft 456 kts 116°
2026-04-25 12:45 63.25676 -18.30480 33640 ft 456 kts 116°
2026-04-25 12:45 63.24284 -18.24273 33834 ft 456 kts 116°
2026-04-25 12:45 63.21461 -18.11736 34225 ft 455 kts 116°
2026-04-25 12:46 63.20055 -18.05520 34413 ft 454 kts 116°
2026-04-25 12:46 63.18630 -17.99238 34599 ft 454 kts 116°
2026-04-25 12:46 63.17207 -17.92987 34779 ft 454 kts 116°
2026-04-25 12:46 63.15801 -17.86821 34952 ft 454 kts 116°
2026-04-25 12:47 63.14375 -17.80589 35124 ft 453 kts 116°
2026-04-25 12:47 63.12952 -17.74388 35289 ft 453 kts 116°
2026-04-25 12:47 63.11526 -17.68195 35441 ft 453 kts 116°
2026-04-25 12:47 63.10110 -17.62060 35571 ft 453 kts 116°
2026-04-25 12:48 63.08669 -17.55835 35688 ft 454 kts 116°
2026-04-25 12:48 63.07240 -17.49676 35800 ft 455 kts 116°
2026-04-25 12:48 63.05857 -17.43737 35907 ft 455 kts 116°
2026-04-25 12:48 63.04404 -17.37515 36015 ft 455 kts 116°
2026-04-25 12:49 63.02949 -17.31299 36119 ft 456 kts 117°
2026-04-25 12:49 63.01506 -17.25154 36215 ft 456 kts 117°
2026-04-25 12:49 62.98575 -17.12724 36392 ft 457 kts 117°
2026-04-25 12:50 62.95655 -17.00408 36555 ft 458 kts 117°
2026-04-25 12:50 62.92705 -16.88024 36680 ft 460 kts 118°
2026-04-25 12:51 62.89736 -16.75637 36850 ft 460 kts 118°
2026-04-25 12:51 62.86742 -16.63237 37004 ft 460 kts 118°
2026-04-25 12:52 62.83746 -16.50896 37120 ft 461 kts 118°
2026-04-25 12:52 62.80732 -16.38547 37233 ft 462 kts 118°
2026-04-25 12:53 62.77707 -16.26216 37279 ft 463 kts 119°
2026-04-25 12:53 62.74777 -16.14338 37306 ft 463 kts 119°
2026-04-25 12:54 62.71717 -16.02002 37322 ft 463 kts 119°
2026-04-25 12:54 62.68660 -15.89750 37330 ft 462 kts 119°
2026-04-25 12:55 62.66086 -15.79481 37333 ft 462 kts 119°
2026-04-25 12:55 62.62502 -15.65269 37335 ft 462 kts 119°
2026-04-25 12:56 62.59404 -15.53053 37336 ft 462 kts 119°
2026-04-25 12:56 62.56399 -15.41269 37336 ft 462 kts 119°
2026-04-25 12:57 62.53281 -15.29105 37336 ft 462 kts 120°
2026-04-25 12:57 62.50177 -15.17067 37336 ft 462 kts 120°
2026-04-25 12:58 62.47031 -15.04926 37336 ft 462 kts 120°
2026-04-25 12:58 62.43883 -14.92830 37336 ft 462 kts 121°
2026-04-25 12:59 62.40743 -14.80848 37336 ft 462 kts 121°
2026-04-25 12:59 62.37580 -14.68851 37336 ft 461 kts 121°
2026-04-25 13:00 62.34926 -14.58830 37336 ft 461 kts 121°
2026-04-25 13:00 62.31220 -14.44909 37336 ft 461 kts 121°
2026-04-25 13:01 62.28037 -14.33018 37336 ft 461 kts 122°
2026-04-25 13:01 62.24836 -14.21124 37336 ft 461 kts 122°
2026-04-25 13:02 62.21636 -14.09299 37336 ft 461 kts 122°
2026-04-25 13:02 62.18399 -13.97395 37336 ft 461 kts 122°
2026-04-25 13:03 62.15174 -13.85600 37336 ft 461 kts 122°
2026-04-25 13:03 62.11940 -13.73831 37336 ft 461 kts 122°
2026-04-25 13:04 62.08678 -13.62028 37336 ft 461 kts 122°
2026-04-25 13:04 62.05434 -13.50348 37337 ft 461 kts 122°
2026-04-25 13:05 62.02153 -13.38594 37337 ft 461 kts 122°
2026-04-25 13:05 61.98870 -13.26893 37336 ft 461 kts 122°
2026-04-25 13:06 61.95580 -13.15230 37335 ft 461 kts 123°
2026-04-25 13:06 61.92281 -13.03586 37335 ft 463 kts 123°
2026-04-25 13:07 61.88966 -12.91950 37336 ft 465 kts 123°
2026-04-25 13:07 61.85607 -12.80231 37336 ft 465 kts 123°
2026-04-25 13:08 61.82259 -12.68610 37336 ft 465 kts 123°
2026-04-25 13:08 61.78878 -12.56928 37336 ft 465 kts 123°
2026-04-25 13:09 61.75513 -12.45362 37335 ft 465 kts 123°
2026-04-25 13:09 61.72120 -12.33755 37335 ft 465 kts 124°
2026-04-25 13:10 61.68733 -12.22230 37336 ft 465 kts 124°
2026-04-25 13:10 61.65328 -12.10700 37336 ft 465 kts 124°
2026-04-25 13:11 61.61914 -11.99200 37336 ft 465 kts 124°
2026-04-25 13:11 61.58502 -11.87764 37337 ft 465 kts 124°
2026-04-25 13:12 61.55049 -11.76248 37344 ft 465 kts 124°
2026-04-25 13:12 61.52186 -11.66743 37351 ft 465 kts 124°
2026-04-25 13:13 61.48155 -11.53429 37358 ft 465 kts 124°
2026-04-25 13:13 61.44703 -11.42085 37361 ft 465 kts 124°
2026-04-25 13:14 61.41218 -11.30692 37362 ft 465 kts 125°
2026-04-25 13:14 61.37760 -11.19442 37362 ft 465 kts 125°
2026-04-25 13:15 61.34252 -11.08086 37362 ft 465 kts 125°
2026-04-25 13:15 61.30760 -10.96833 37362 ft 465 kts 125°
2026-04-25 13:16 61.27255 -10.85587 37362 ft 466 kts 126°
2026-04-25 13:16 61.23726 -10.74328 37362 ft 467 kts 126°
2026-04-25 13:17 61.20168 -10.63036 37361 ft 467 kts 126°
2026-04-25 13:17 61.16622 -10.51843 37361 ft 467 kts 126°
2026-04-25 13:18 61.13050 -10.40611 37363 ft 467 kts 126°
2026-04-25 13:18 61.09488 -10.29465 37361 ft 467 kts 127°
2026-04-25 13:19 61.05907 -10.18312 37362 ft 467 kts 127°
2026-04-25 13:19 61.02908 -10.09020 37361 ft 467 kts 127°
2026-04-25 13:20 60.99027 -9.95632 37362 ft 470 kts 120°
2026-04-25 13:20 60.96246 -9.83553 37362 ft 471 kts 117°
2026-04-25 13:21 60.93489 -9.71376 37362 ft 471 kts 117°
2026-04-25 13:21 60.90710 -9.59198 37363 ft 470 kts 117°
2026-04-25 13:22 60.87936 -9.47119 37363 ft 471 kts 117°
2026-04-25 13:23 60.83744 -9.29011 37361 ft 470 kts 118°
2026-04-25 13:23 60.80924 -9.16907 37363 ft 470 kts 118°
2026-04-25 13:24 60.78108 -9.04889 37361 ft 471 kts 118°
2026-04-25 13:24 60.75275 -8.92865 37361 ft 472 kts 118°
2026-04-25 13:25 60.72420 -8.80827 37361 ft 473 kts 119°
2026-04-25 13:25 60.69533 -8.68729 37362 ft 473 kts 119°
2026-04-25 13:26 60.66644 -8.56694 37362 ft 473 kts 119°
2026-04-25 13:26 60.63759 -8.44733 37361 ft 473 kts 119°
2026-04-25 13:27 60.60861 -8.32781 37362 ft 473 kts 120°
2026-04-25 13:27 60.57931 -8.20765 37362 ft 473 kts 120°
2026-04-25 13:28 60.55009 -8.08847 37362 ft 473 kts 120°
2026-04-25 13:28 60.52076 -7.96948 37362 ft 473 kts 120°
2026-04-25 13:29 60.49137 -7.85095 37362 ft 473 kts 120°
2026-04-25 13:29 60.46171 -7.73189 37365 ft 473 kts 120°
2026-04-25 13:30 60.41753 -7.55572 37362 ft 470 kts 120°
2026-04-25 13:31 60.37299 -7.37963 37362 ft 470 kts 120°
2026-04-25 13:31 60.34318 -7.26249 37362 ft 470 kts 121°
2026-04-25 13:32 60.31318 -7.14524 37362 ft 470 kts 121°
2026-04-25 13:32 60.28318 -7.02859 37360 ft 471 kts 121°
2026-04-25 13:33 60.25296 -6.91177 37362 ft 473 kts 121°
2026-04-25 13:33 60.22264 -6.79514 37362 ft 473 kts 121°
2026-04-25 13:34 60.19208 -6.67818 37363 ft 473 kts 121°
2026-04-25 13:34 60.16157 -6.56201 37356 ft 473 kts 121°
2026-04-25 13:35 60.13091 -6.44592 37332 ft 473 kts 121°
2026-04-25 13:35 60.10003 -6.32953 37308 ft 473 kts 122°
2026-04-25 13:36 60.06913 -6.21372 37293 ft 473 kts 122°
2026-04-25 13:36 60.03805 -6.09782 37287 ft 473 kts 122°
2026-04-25 13:37 60.00705 -5.98282 37285 ft 473 kts 122°
2026-04-25 13:37 59.97578 -5.86742 37283 ft 473 kts 122°
2026-04-25 13:38 59.94446 -5.75237 37283 ft 473 kts 122°
2026-04-25 13:38 59.91298 -5.63735 37283 ft 473 kts 122°
2026-04-25 13:39 59.88150 -5.52292 37284 ft 473 kts 122°
2026-04-25 13:39 59.84988 -5.40854 37282 ft 473 kts 122°
2026-04-25 13:40 59.81811 -5.29419 37284 ft 473 kts 123°
2026-04-25 13:40 59.78644 -5.18078 37283 ft 473 kts 122°
2026-04-25 13:41 59.75449 -5.06694 37283 ft 473 kts 123°
2026-04-25 13:41 59.72248 -4.95339 37284 ft 473 kts 123°
2026-04-25 13:42 59.69038 -4.84003 37288 ft 474 kts 123°
2026-04-25 13:42 59.65803 -4.72648 37296 ft 475 kts 123°
2026-04-25 13:43 59.62564 -4.61345 37302 ft 475 kts 123°
2026-04-25 13:43 59.59297 -4.49991 37305 ft 475 kts 123°
2026-04-25 13:44 59.56045 -4.38743 37308 ft 475 kts 123°
2026-04-25 13:44 59.52760 -4.27434 37308 ft 475 kts 124°
2026-04-25 13:45 59.49485 -4.16215 37309 ft 474 kts 124°
2026-04-25 13:45 59.46211 -4.05052 37308 ft 474 kts 124°
2026-04-25 13:46 59.42897 -3.93820 37308 ft 475 kts 124°
2026-04-25 13:46 59.39594 -3.82679 37307 ft 475 kts 124°
2026-04-25 13:47 59.36262 -3.71495 37307 ft 475 kts 124°
2026-04-25 13:47 59.32938 -3.60385 37308 ft 475 kts 124°
2026-04-25 13:48 59.29613 -3.49324 37308 ft 475 kts 124°
2026-04-25 13:48 59.26251 -3.38197 37308 ft 475 kts 124°
2026-04-25 13:49 59.22905 -3.27171 37307 ft 474 kts 125°
2026-04-25 13:49 59.19533 -3.16117 37308 ft 474 kts 125°
2026-04-25 13:50 59.16155 -3.05088 37308 ft 474 kts 126°
2026-04-25 13:50 59.12799 -2.94176 37309 ft 472 kts 126°
2026-04-25 13:51 59.09421 -2.83249 37308 ft 470 kts 126°
2026-04-25 13:51 59.06068 -2.72472 37308 ft 470 kts 126°
2026-04-25 13:52 59.02689 -2.61655 37308 ft 470 kts 126°
2026-04-25 13:52 58.99279 -2.50781 37307 ft 473 kts 127°
2026-04-25 13:53 58.95874 -2.39974 37307 ft 475 kts 127°
2026-04-25 13:53 58.92416 -2.29053 37305 ft 476 kts 128°
2026-04-25 13:54 58.88953 -2.18168 37307 ft 479 kts 128°
2026-04-25 13:54 58.85439 -2.07176 37308 ft 482 kts 128°
2026-04-25 13:55 58.81924 -1.96231 37308 ft 482 kts 128°
2026-04-25 13:55 58.78376 -1.85231 37308 ft 482 kts 128°
2026-04-25 13:56 58.74847 -1.74341 37304 ft 483 kts 128°
2026-04-25 13:56 58.71296 -1.63430 37296 ft 483 kts 128°
2026-04-25 13:57 58.67725 -1.52515 37290 ft 483 kts 128°
2026-04-25 13:57 58.64161 -1.41668 37286 ft 483 kts 128°
2026-04-25 13:58 58.60572 -1.30795 37284 ft 483 kts 129°
2026-04-25 13:58 58.56988 -1.19986 37284 ft 482 kts 129°
2026-04-25 13:59 58.53396 -1.09198 37284 ft 482 kts 129°
2026-04-25 13:59 58.49797 -0.98434 37284 ft 481 kts 129°
2026-04-25 14:00 58.46203 -0.87746 37284 ft 480 kts 129°
2026-04-25 14:00 58.42579 -0.77024 37284 ft 480 kts 129°
2026-04-25 14:01 58.38976 -0.66404 37284 ft 480 kts 129°
2026-04-25 14:01 58.35347 -0.55754 37284 ft 480 kts 129°
2026-04-25 14:02 58.31704 -0.45112 37284 ft 480 kts 129°
2026-04-25 14:02 58.28066 -0.34531 37284 ft 480 kts 130°
2026-04-25 14:03 58.24424 -0.23982 37283 ft 480 kts 130°
2026-04-25 14:03 58.20775 -0.13464 37279 ft 480 kts 130°
2026-04-25 14:04 58.17113 -0.02954 37260 ft 480 kts 130°
2026-04-25 14:04 58.13440 0.07542 37235 ft 480 kts 130°
2026-04-25 14:05 58.09734 0.18084 37217 ft 480 kts 130°
2026-04-25 14:05 58.06045 0.28534 37208 ft 480 kts 130°
2026-04-25 14:06 58.02356 0.38941 37204 ft 480 kts 130°
2026-04-25 14:06 57.98636 0.49386 37202 ft 480 kts 130°
2026-04-25 14:07 57.94973 0.59834 37202 ft 483 kts 127°
2026-04-25 14:07 57.91651 0.70917 37201 ft 485 kts 126°
2026-04-25 14:08 57.88420 0.81951 37202 ft 485 kts 126°
2026-04-25 14:08 57.85167 0.92992 37201 ft 485 kts 126°
2026-04-25 14:09 57.81889 1.04061 37201 ft 485 kts 126°
2026-04-25 14:09 57.78627 1.15025 37201 ft 485 kts 126°
2026-04-25 14:10 57.75337 1.26016 37201 ft 485 kts 127°
2026-04-25 14:10 57.72024 1.37013 37201 ft 485 kts 127°
2026-04-25 14:11 57.68707 1.47982 37201 ft 485 kts 127°
2026-04-25 14:11 57.65406 1.58854 37201 ft 485 kts 127°
2026-04-25 14:12 57.62077 1.69769 37200 ft 485 kts 128°
2026-04-25 14:12 57.58751 1.80624 37201 ft 484 kts 128°
2026-04-25 14:13 57.55394 1.91524 37201 ft 485 kts 128°
2026-04-25 14:13 57.52036 2.02380 37201 ft 485 kts 128°
2026-04-25 14:14 57.48676 2.13194 37201 ft 485 kts 128°
2026-04-25 14:14 57.45318 2.23951 37201 ft 485 kts 128°
2026-04-25 14:15 57.41952 2.34699 37209 ft 480 kts 128°
2026-04-25 14:15 57.38591 2.45360 37217 ft 479 kts 128°
2026-04-25 14:16 57.35228 2.55979 37216 ft 479 kts 128°
2026-04-25 14:16 57.31871 2.66535 37210 ft 479 kts 129°
2026-04-25 14:17 57.28480 2.77160 37205 ft 479 kts 129°
2026-04-25 14:17 57.25095 2.87715 37202 ft 479 kts 129°
2026-04-25 14:18 57.21712 2.98221 37201 ft 480 kts 129°
2026-04-25 14:18 57.18277 3.08840 37200 ft 482 kts 129°
2026-04-25 14:19 57.14861 3.19351 37201 ft 483 kts 129°
2026-04-25 14:19 57.11406 3.29935 37201 ft 483 kts 129°
2026-04-25 14:20 57.07938 3.40517 37199 ft 487 kts 130°
2026-04-25 14:20 57.04404 3.51243 37198 ft 493 kts 130°
2026-04-25 14:21 57.00829 3.62041 37198 ft 499 kts 130°
2026-04-25 14:21 56.97215 3.72910 37196 ft 504 kts 131°
2026-04-25 14:22 56.93549 3.83890 37200 ft 509 kts 131°
2026-04-25 14:22 56.89846 3.94923 37201 ft 514 kts 131°
2026-04-25 14:23 56.86101 4.06033 37198 ft 515 kts 131°
2026-04-25 14:23 56.82333 4.17159 37191 ft 515 kts 131°
2026-04-25 14:24 56.78569 4.28224 37183 ft 515 kts 131°
2026-04-25 14:24 56.74805 4.39241 37178 ft 515 kts 131°
2026-04-25 14:25 56.71011 4.50293 37176 ft 515 kts 131°
2026-04-25 14:25 56.67208 4.61322 37175 ft 516 kts 131°
2026-04-25 14:26 56.63408 4.72297 37174 ft 515 kts 131°
2026-04-25 14:26 56.59607 4.83221 37175 ft 514 kts 131°
2026-04-25 14:27 56.55771 4.94128 37174 ft 513 kts 132°
2026-04-25 14:27 56.51547 5.04329 37175 ft 504 kts 139°
2026-04-25 14:28 56.46841 5.13717 37175 ft 502 kts 141°
2026-04-25 14:28 56.42139 5.22942 37175 ft 502 kts 141°
2026-04-25 14:29 56.37412 5.32217 37175 ft 502 kts 141°
2026-04-25 14:29 56.32702 5.41440 37175 ft 503 kts 141°
2026-04-25 14:30 56.27996 5.50623 37175 ft 503 kts 141°
2026-04-25 14:30 56.20880 5.64442 37175 ft 503 kts 141°
2026-04-25 14:31 56.16150 5.73589 37174 ft 502 kts 142°
2026-04-25 14:31 56.11404 5.82723 37174 ft 502 kts 142°
2026-04-25 14:32 56.06671 5.91798 37167 ft 502 kts 142°
2026-04-25 14:32 56.01919 6.00875 37147 ft 502 kts 142°
2026-04-25 14:33 55.97147 6.09955 37110 ft 502 kts 142°
2026-04-25 14:33 55.92374 6.19001 37078 ft 502 kts 142°
2026-04-25 14:34 55.87604 6.28010 37060 ft 502 kts 142°
2026-04-25 14:34 55.82830 6.36989 37056 ft 502 kts 142°
2026-04-25 14:35 55.78015 6.46013 37059 ft 502 kts 142°
2026-04-25 14:35 55.73243 6.54921 37061 ft 502 kts 142°
2026-04-25 14:36 55.68422 6.63886 37061 ft 502 kts 142°
2026-04-25 14:36 55.63634 6.72760 37062 ft 501 kts 143°
2026-04-25 14:37 55.58944 6.81415 37064 ft 501 kts 143°
2026-04-25 14:37 55.54113 6.90297 37064 ft 501 kts 143°
2026-04-25 14:38 55.49283 6.99142 37064 ft 501 kts 143°
2026-04-25 14:38 55.44466 7.07916 37064 ft 502 kts 142°
2026-04-25 14:39 55.39611 7.16733 37064 ft 502 kts 141°
2026-04-25 14:39 55.34754 7.25537 37064 ft 502 kts 141°
2026-04-25 14:40 55.29844 7.34413 37064 ft 502 kts 141°
2026-04-25 14:40 55.24943 7.43230 37064 ft 502 kts 141°
2026-04-25 14:41 55.20039 7.52015 37064 ft 502 kts 141°
2026-04-25 14:41 55.15152 7.60737 37065 ft 502 kts 141°
2026-04-25 14:42 55.11056 7.68024 37063 ft 501 kts 142°
2026-04-25 14:42 55.05378 7.78087 37064 ft 501 kts 142°
2026-04-25 14:43 55.00433 7.86810 37061 ft 503 kts 142°
2026-04-25 14:43 54.95447 7.95890 37060 ft 510 kts 140°
2026-04-25 14:44 54.90458 8.05156 37060 ft 517 kts 140°
2026-04-25 14:44 54.85519 8.14269 37063 ft 523 kts 140°
2026-04-25 14:45 54.80508 8.23457 37064 ft 527 kts 140°
2026-04-25 14:45 54.75492 8.32620 37064 ft 527 kts 140°
2026-04-25 14:46 54.70444 8.41802 37064 ft 527 kts 140°
2026-04-25 14:46 54.65404 8.50933 37064 ft 527 kts 140°
2026-04-25 14:47 54.61203 8.58514 37064 ft 527 kts 140°
2026-04-25 14:47 54.55294 8.69142 37063 ft 527 kts 141°
2026-04-25 14:48 54.50248 8.78178 37064 ft 526 kts 141°
2026-04-25 14:48 54.45179 8.87220 37064 ft 526 kts 141°
2026-04-25 14:49 54.40098 8.96237 37062 ft 526 kts 141°
2026-04-25 14:49 54.35023 9.05207 37053 ft 526 kts 140°
2026-04-25 14:50 54.29943 9.14165 37039 ft 526 kts 139°
2026-04-25 14:50 54.24854 9.23119 37026 ft 526 kts 139°
2026-04-25 14:51 54.19791 9.31989 37026 ft 526 kts 139°
2026-04-25 14:51 54.14687 9.40893 37038 ft 526 kts 139°
2026-04-25 14:52 54.09550 9.49818 37056 ft 526 kts 139°
2026-04-25 14:52 54.05294 9.57187 37070 ft 526 kts 139°
2026-04-25 14:53 53.99320 9.67494 37081 ft 526 kts 140°
2026-04-25 14:53 53.94188 9.76311 37084 ft 526 kts 140°
2026-04-25 14:54 53.89076 9.85059 37086 ft 526 kts 140°
2026-04-25 14:54 53.83928 9.93837 37089 ft 526 kts 140°
2026-04-25 14:55 53.78820 10.02515 37090 ft 526 kts 140°
2026-04-25 14:55 53.73663 10.11244 37091 ft 526 kts 140°
2026-04-25 14:56 53.68518 10.19922 37091 ft 526 kts 140°
2026-04-25 14:56 53.63546 10.28276 37091 ft 526 kts 140°
2026-04-25 14:57 53.58377 10.36932 37090 ft 526 kts 140°
2026-04-25 14:57 53.53184 10.45596 37084 ft 526 kts 140°
2026-04-25 14:58 53.48011 10.54195 37072 ft 526 kts 140°
2026-04-25 14:58 53.42835 10.62771 37057 ft 526 kts 140°
2026-04-25 14:59 53.37638 10.71350 37046 ft 525 kts 141°
2026-04-25 14:59 53.32452 10.79880 37043 ft 525 kts 141°
2026-04-25 15:00 53.27291 10.88334 37039 ft 522 kts 141°
2026-04-25 15:00 53.22100 10.96799 37039 ft 521 kts 140°
2026-04-25 15:01 53.16940 11.05192 37040 ft 519 kts 140°
2026-04-25 15:01 53.13055 11.11506 37039 ft 519 kts 140°
2026-04-25 15:02 53.07231 11.20933 37034 ft 523 kts 140°
2026-04-25 15:03 52.96764 11.37474 37042 ft 536 kts 141°
2026-04-25 15:03 52.93054 11.43271 37058 ft 533 kts 140°
2026-04-25 15:04 52.87686 11.51677 37059 ft 532 kts 140°
2026-04-25 15:04 52.82340 11.60026 37062 ft 531 kts 140°
2026-04-25 15:05 52.76981 11.68365 37062 ft 531 kts 141°
2026-04-25 15:06 52.68931 11.80829 37064 ft 531 kts 141°
2026-04-25 15:06 52.63555 11.89115 37064 ft 531 kts 141°
2026-04-25 15:07 52.58176 11.97377 37064 ft 531 kts 141°
2026-04-25 15:07 52.52776 12.05643 37064 ft 531 kts 141°
2026-04-25 15:08 52.47385 12.13865 37064 ft 531 kts 141°
2026-04-25 15:08 52.41997 12.22055 37064 ft 531 kts 141°
2026-04-25 15:09 52.37496 12.28874 37065 ft 531 kts 141°
2026-04-25 15:09 52.28497 12.42451 37065 ft 531 kts 141°
2026-04-25 15:10 52.23085 12.50577 37065 ft 531 kts 141°
2026-04-25 15:11 52.14939 12.62757 37065 ft 531 kts 141°
2026-04-25 15:11 52.09529 12.70813 37063 ft 530 kts 142°
2026-04-25 15:12 52.01383 12.82884 37064 ft 530 kts 142°
2026-04-25 15:12 51.96852 12.89574 37064 ft 531 kts 142°
2026-04-25 15:13 51.87746 13.02964 37063 ft 530 kts 142°
2026-04-25 15:14 51.82306 13.10926 37064 ft 530 kts 142°
2026-04-25 15:14 51.76850 13.18858 37064 ft 530 kts 142°
2026-04-25 15:15 51.71341 13.26768 37064 ft 530 kts 142°
2026-04-25 15:15 51.65852 13.34623 37064 ft 530 kts 142°
2026-04-25 15:16 51.60372 13.42446 37064 ft 530 kts 142°
2026-04-25 15:16 51.52116 13.54190 37064 ft 530 kts 142°
2026-04-25 15:17 51.43848 13.65892 37063 ft 530 kts 143°
2026-04-25 15:18 51.38312 13.73695 37064 ft 530 kts 143°
2026-04-25 15:18 51.30044 13.85296 37064 ft 530 kts 143°
2026-04-25 15:19 51.25448 13.91722 37064 ft 530 kts 143°
2026-04-25 15:19 51.19014 14.00686 37064 ft 530 kts 143°
2026-04-25 15:20 51.13470 14.08384 37064 ft 530 kts 143°
2026-04-25 15:20 51.07909 14.16081 37064 ft 530 kts 143°
2026-04-25 15:21 51.02358 14.23740 37064 ft 530 kts 143°
2026-04-25 15:21 50.96832 14.31338 37065 ft 530 kts 143°
2026-04-25 15:22 50.91201 14.38816 37065 ft 527 kts 147°
2026-04-25 15:22 50.85397 14.45794 37064 ft 528 kts 148°
2026-04-25 15:23 50.79539 14.52772 37064 ft 528 kts 148°
2026-04-25 15:23 50.73705 14.59722 37064 ft 528 kts 148°
2026-04-25 15:24 50.67841 14.66694 37062 ft 528 kts 148°
2026-04-25 15:24 50.62985 14.72456 37064 ft 527 kts 148°
2026-04-25 15:25 50.56173 14.80507 37064 ft 528 kts 148°
2026-04-25 15:25 50.50332 14.87389 37064 ft 527 kts 148°
2026-04-25 15:26 50.44458 14.94286 37064 ft 527 kts 148°
2026-04-25 15:26 50.38598 15.01147 37064 ft 527 kts 148°
2026-04-25 15:27 50.32744 15.07979 37064 ft 527 kts 148°
2026-04-25 15:28 50.23969 15.18178 37065 ft 527 kts 148°
2026-04-25 15:28 50.18075 15.25004 37064 ft 527 kts 148°
2026-04-25 15:29 50.12206 15.31778 37064 ft 527 kts 148°
2026-04-25 15:29 50.06344 15.38524 37065 ft 527 kts 148°
2026-04-25 15:30 50.00452 15.45282 37065 ft 527 kts 148°
2026-04-25 15:30 49.94564 15.52016 37065 ft 527 kts 148°
2026-04-25 15:31 49.88697 15.58703 37063 ft 527 kts 148°
2026-04-25 15:31 49.82785 15.65422 37063 ft 527 kts 149°
2026-04-25 15:32 49.76883 15.72112 37064 ft 527 kts 149°
2026-04-25 15:32 49.70995 15.78761 37064 ft 527 kts 149°
2026-04-25 15:33 49.62158 15.88703 36880 ft 529 kts 149°
2026-04-25 15:33 49.59193 15.92029 36501 ft 526 kts 149°
2026-04-25 15:33 49.56258 15.95319 35861 ft 525 kts 149°
2026-04-25 15:34 49.53319 15.98606 35161 ft 525 kts 149°
2026-04-25 15:34 49.50382 16.01886 34462 ft 526 kts 149°
2026-04-25 15:34 49.47440 16.05167 33763 ft 525 kts 149°
2026-04-25 15:34 49.45452 16.07383 33292 ft 525 kts 149°
2026-04-25 15:35 49.38603 16.15002 31665 ft 522 kts 150°
2026-04-25 15:35 49.35681 16.18240 30967 ft 520 kts 150°
2026-04-25 15:35 49.32780 16.21350 30275 ft 514 kts 153°
2026-04-25 15:36 49.26693 16.26730 28878 ft 500 kts 161°
2026-04-25 15:36 49.23599 16.29023 28181 ft 495 kts 162°
2026-04-25 15:36 49.20497 16.31299 27477 ft 491 kts 162°
2026-04-25 15:37 49.17443 16.33539 26777 ft 487 kts 161°
2026-04-25 15:37 49.14423 16.35758 26080 ft 483 kts 161°
2026-04-25 15:37 49.11428 16.37962 25380 ft 478 kts 161°
2026-04-25 15:37 49.08483 16.40128 24686 ft 474 kts 161°
2026-04-25 15:38 49.05517 16.42309 23981 ft 469 kts 161°
2026-04-25 15:38 49.02640 16.44422 23289 ft 464 kts 161°
2026-04-25 15:38 48.99762 16.46534 22590 ft 460 kts 161°
2026-04-25 15:38 48.96867 16.48378 21879 ft 446 kts 170°
2026-04-25 15:39 48.93858 16.49408 21181 ft 437 kts 174°
2026-04-25 15:39 48.90922 16.50257 20485 ft 432 kts 175°
2026-04-25 15:39 48.88332 16.50987 19866 ft 428 kts 175°
2026-04-25 15:39 48.86148 16.51603 19338 ft 424 kts 174°
2026-04-25 15:40 48.83269 16.52422 18681 ft 419 kts 174°
2026-04-25 15:40 48.81596 16.52904 18411 ft 413 kts 174°
2026-04-25 15:40 48.77883 16.53978 17813 ft 407 kts 173°
2026-04-25 15:40 48.75125 16.54776 17362 ft 404 kts 173°
2026-04-25 15:41 48.72375 16.55573 16910 ft 401 kts 173°
2026-04-25 15:41 48.69654 16.56363 16459 ft 398 kts 173°
2026-04-25 15:41 48.66964 16.57143 16010 ft 395 kts 173°
2026-04-25 15:41 48.64303 16.57916 15562 ft 392 kts 172°
2026-04-25 15:42 48.62336 16.58485 15230 ft 390 kts 172°
2026-04-25 15:42 48.59612 16.59267 14750 ft 413 kts 171°
2026-04-25 15:42 48.56766 16.60086 14296 ft 423 kts 171°
2026-04-25 15:42 48.53894 16.60922 13846 ft 422 kts 171°
2026-04-25 15:43 48.51018 16.61758 13394 ft 418 kts 171°
2026-04-25 15:43 48.48209 16.62573 12960 ft 414 kts 170°
2026-04-25 15:43 48.45388 16.63389 12534 ft 411 kts 170°
2026-04-25 15:43 48.42605 16.64191 12110 ft 408 kts 170°
2026-04-25 15:44 48.39855 16.64984 11687 ft 404 kts 170°
2026-04-25 15:44 48.37077 16.65784 11256 ft 402 kts 171°
2026-04-25 15:44 48.34352 16.66568 10831 ft 399 kts 171°
2026-04-25 15:44 48.31660 16.67341 10409 ft 397 kts 171°
2026-04-25 15:45 48.28965 16.68113 9984 ft 395 kts 171°
2026-04-25 15:45 48.26313 16.68873 9558 ft 386 kts 171°
2026-04-25 15:45 48.23697 16.69621 9130 ft 377 kts 171°
2026-04-25 15:45 48.22012 16.70103 8849 ft 372 kts 171°
2026-04-25 15:46 48.18684 16.71052 8281 ft 362 kts 171°
2026-04-25 15:46 48.16232 16.71747 7854 ft 355 kts 171°
2026-04-25 15:46 48.13847 16.72425 7431 ft 349 kts 171°
2026-04-25 15:46 48.11475 16.73097 7002 ft 343 kts 171°
2026-04-25 15:47 48.09148 16.73753 6578 ft 338 kts 172°
2026-04-25 15:47 48.06872 16.74378 6244 ft 330 kts 172°
2026-04-25 15:47 48.04649 16.74986 5919 ft 323 kts 172°
2026-04-25 15:47 48.02473 16.75584 5592 ft 316 kts 172°
2026-04-25 15:48 48.00338 16.76160 5264 ft 304 kts 175°
2026-04-25 15:48 47.98302 16.76319 4941 ft 291 kts 183°
2026-04-25 15:48 47.96312 16.76256 4615 ft 278 kts 184°
2026-04-25 15:48 47.94470 16.75889 4320 ft 259 kts 204°
2026-04-25 15:49 47.93060 16.74450 4167 ft 240 kts 234°
2026-04-25 15:49 47.92397 16.72263 4035 ft 226 kts 264°
2026-04-25 15:49 47.92548 16.70003 3905 ft 220 kts 292°
2026-04-25 15:49 47.93312 16.68117 3788 ft 211 kts 309°
2026-04-25 15:50 47.94306 16.66532 3581 ft 205 kts 314°
2026-04-25 15:50 47.95398 16.65227 3310 ft 200 kts 328°
2026-04-25 15:50 47.96620 16.64382 3093 ft 188 kts 337°
2026-04-25 15:50 47.97841 16.63791 2812 ft 183 kts 341°
2026-04-25 15:51 47.99063 16.63278 2555 ft 183 kts 341°
2026-04-25 15:51 47.99860 16.62950 2417 ft 180 kts 341°
2026-04-25 15:51 48.01413 16.62302 2099 ft 165 kts 341°
2026-04-25 15:51 48.02470 16.61855 1874 ft 151 kts 339°
2026-04-25 15:52 48.03433 16.61439 1636 ft 140 kts 339°
2026-04-25 15:52 48.04361 16.61047 1454 ft 137 kts 339°
2026-04-25 15:52 48.05277 16.60651 1300 ft 137 kts 340°
2026-04-25 15:52 48.06188 16.60265 1135 ft 137 kts 339°
2026-04-25 15:53 48.07107 16.59883 950 ft 137 kts 340°
2026-04-25 15:53 48.08028 16.59500 776 ft 136 kts 340°
2026-04-25 15:53 48.08935 16.59112 602 ft 135 kts 339°
2026-04-25 15:53 48.09740 16.58765 597 ft 106 kts 344°
2026-04-25 15:54 48.10363 16.58499 599 ft 84 kts 344°
2026-04-25 15:54 48.10891 16.58280 596 ft 73 kts 344°
2026-04-25 15:54 48.11356 16.58079 593 ft 66 kts 344°
2026-04-25 15:54 48.11744 16.57918 593 ft 38 kts 345°
2026-04-25 15:55 48.11859 16.57694 592 ft 28 kts 265°
2026-04-25 15:55 48.11810 16.57425 594 ft 25 kts 257°
2026-04-25 15:55 48.11852 16.57194 598 ft 21 kts 274°
2026-04-25 15:55 48.11903 16.56994 598 ft 20 kts 296°
2026-04-25 15:56 48.11890 16.56900 597 ft 8 kts 207°
2026-04-25 15:56 48.11863 16.56880 598 ft 0 kts 206°